QPF
0.02 0.02 0.03 0.04 0.04 0.05 0.04 0.04 0.04 0.05 0.05 0.05 0.04 0.03 0.03 0.02 0.02 0.03 0.03 0.04 0.03 0.02 0.02 0.03 0.03 0.03 0.03 0.03 0.03 0.04 0.04 0.05 0.06 0.04 0.04 0.05 0.06 0.06 0.06 0.04 0.03 0.03 0.03
0.02 0.03 0.04 0.04 0.05 0.04 0.03 0.04 0.04 0.04 0.05 0.06 0.06 0.05 0.04 0.04 0.03 0.03 0.04 0.04 0.03 0.03 0.03 0.04 0.03 0.03 0.04 0.04 0.04 0.04 0.05 0.06 0.06 0.05 0.05 0.06 0.07 0.06 0.07 0.05 0.04 0.03 0.03
0.02 0.03 0.03 0.03 0.03 0.03 0.03 0.03 0.03 0.04 0.04 0.05 0.06 0.06 0.05 0.06 0.05 0.04 0.04 0.03 0.03 0.03 0.03 0.04 0.04 0.04 0.04 0.05 0.05 0.04 0.04 0.04 0.06 0.06 0.05 0.06 0.05 0.05 0.06 0.05 0.04 0.04 0.02
0.03 0.03 0.03 0.04 0.03 0.03 0.03 0.02 0.02 0.03 0.04 0.05 0.06 0.06 0.05 0.05 0.05 0.05 0.05 0.05 0.04 0.04 0.04 0.05 0.05 0.05 0.05 0.04 0.05 0.04 0.04 0.03 0.03 0.04 0.03 0.03 0.04 0.05 0.06 0.05 0.03 0.03 0.02
0.04 0.05 0.05 0.05 0.04 0.03 0.03 0.03 0.03 0.04 0.05 0.07 0.08 0.07 0.07 0.05 0.04 0.06 0.07 0.07 0.05 0.04 0.05 0.05 0.06 0.06 0.05 0.05 0.05 0.04 0.04 0.03 0.03 0.03 0.03 0.03 0.03 0.04 0.03 0.03 0.02 0.02 0.02
0.05 0.06 0.06 0.07 0.05 0.04 0.03 0.03 0.04 0.05 0.05 0.06 0.07 0.06 0.05 0.04 0.05 0.06 0.07 0.08 0.07 0.06 0.07 0.08 0.08 0.07 0.07 0.07 0.06 0.05 0.05 0.04 0.03 0.04 0.04 0.03 0.03 0.03 0.03 0.03 0.03 0.02 0.02
0.05 0.05 0.06 0.06 0.05 0.04 0.03 0.02 0.03 0.03 0.03 0.03 0.05 0.05 0.03 0.04 0.05 0.05 0.05 0.06 0.07 0.08 0.11 0.14 0.12 0.09 0.10 0.09 0.07 0.06 0.06 0.05 0.05 0.06 0.06 0.05 0.04 0.04 0.05 0.04 0.04 0.04 0.04
0.05 0.04 0.04 0.05 0.05 0.05 0.04 0.03 0.03 0.04 0.03 0.03 0.03 0.03 0.04 0.04 0.04 0.04 0.04 0.04 0.04 0.05 0.09 0.13 0.13 0.10 0.09 0.07 0.06 0.05 0.04 0.05 0.07 0.08 0.08 0.08 0.06 0.06 0.06 0.06 0.07 0.07 0.07
0.04 0.03 0.03 0.04 0.05 0.05 0.05 0.04 0.05 0.04 0.03 0.03 0.03 0.02 0.03 0.04 0.03 0.02 0.03 0.02 0.02 0.03 0.04 0.06 0.07 0.06 0.05 0.04 0.04 0.04 0.04 0.03 0.03 0.04 0.05 0.05 0.06 0.05 0.06 0.06 0.07 0.07 0.07
0.03 0.03 0.04 0.04 0.04 0.04 0.04 0.05 0.05 0.04 0.04 0.04 0.03 0.03 0.03 0.03 0.02 0.02 0.02 0.03 0.02 0.02 0.03 0.03 0.02 0.03 0.03 0.03 0.04 0.04 0.04 0.03 0.03 0.03 0.04 0.04 0.05 0.05 0.06 0.06 0.06 0.06 0.05
0.02 0.03 0.03 0.03 0.03 0.03 0.03 0.03 0.04 0.04 0.04 0.04 0.03 0.03 0.03 0.02 0.01 0.02 0.03 0.03 0.03 0.02 0.02 0.02 0.01 0.02 0.02 0.02 0.03 0.03 0.03 0.03 0.04 0.04 0.03 0.03 0.04 0.04 0.05 0.06 0.05 0.05 0.05
0.02 0.02 0.01 0.02 0.02 0.03 0.04 0.03 0.04 0.04 0.04 0.04 0.03 0.03 0.03 0.02 0.02 0.03 0.03 0.04 0.03 0.02 0.02 0.02 0.02 0.02 0.01 0.01 0.01 0.01 0.02 0.03 0.03 0.02 0.02 0.01 0.02 0.04 0.04 0.05 0.06 0.06 0.06
0.03 0.03 0.02 0.02 0.02 0.03 0.04 0.04 0.04 0.04 0.04 0.04 0.04 0.03 0.03 0.03 0.03 0.03 0.03 0.04 0.03 0.02 0.02 0.02 0.03 0.03 0.02 0.02 0.01 0.01 0.01 0.02 0.02 0.02 0.02 0.02 0.03 0.03 0.04 0.04 0.05 0.05 0.05
0.02 0.03 0.04 0.03 0.02 0.03 0.03 0.03 0.04 0.04 0.03 0.03 0.04 0.06 0.07 0.06 0.05 0.04 0.04 0.05 0.05 0.04 0.03 0.03 0.03 0.03 0.03 0.02 0.02 0.02 0.01 0.01 0.02 0.02 0.02 0.03 0.03 0.04 0.03 0.04 0.04 0.04 0.05
0.02 0.02 0.02 0.03 0.04 0.04 0.03 0.03 0.03 0.03 0.03 0.03 0.03 0.04 0.07 0.08 0.07 0.08 0.08 0.07 0.07 0.06 0.07 0.05 0.04 0.04 0.03 0.02 0.03 0.03 0.03 0.02 0.02 0.02 0.03 0.03 0.03 0.03 0.04 0.03 0.03 0.04 0.04
0.02 0.02 0.02 0.02 0.03 0.04 0.04 0.04 0.04 0.04 0.04 0.03 0.04 0.04 0.05 0.08 0.08 0.05 0.04 0.05 0.07 0.07 0.09 0.08 0.06 0.05 0.04 0.04 0.03 0.03 0.03 0.03 0.02 0.02 0.03 0.03 0.03 0.03 0.03 0.03 0.02 0.02 0.02
0.02 0.01 0.02 0.02 0.03 0.04 0.04 0.03 0.03 0.04 0.04 0.04 0.04 0.04 0.04 0.05 0.08 0.08 0.05 0.03 0.04 0.05 0.06 0.08 0.08 0.07 0.06 0.05 0.04 0.04 0.03 0.02 0.01 0.01 0.02 0.02 0.02 0.03 0.03 0.02 0.01 0.01 0.01
0.02 0.02 0.02 0.03 0.04 0.04 0.03 0.03 0.02 0.02 0.02 0.03 0.03 0.03 0.04 0.05 0.06 0.05 0.04 0.04 0.04 0.05 0.06 0.07 0.07 0.07 0.06 0.06 0.05 0.04 0.03 0.01 0.01 0.01 0.01 0.02 0.02 0.02 0.02 0.02 0.01 0.01 0.02
0.03 0.03 0.02 0.03 0.03 0.03 0.03 0.03 0.02 0.03 0.03 0.02 0.02 0.02 0.03 0.04 0.04 0.03 0.03 0.03 0.04 0.05 0.06 0.07 0.07 0.06 0.05 0.05 0.04 0.03 0.02 0.02 0.02 0.02 0.02 0.02 0.02 0.02 0.02 0.02 0.02 0.02 0.02
0.04 0.04 0.04 0.03 0.03 0.03 0.04 0.04 0.03 0.03 0.02 0.02 0.02 0.02 0.02 0.02 0.02 0.03 0.03 0.03 0.05 0.06 0.06 0.07 0.07 0.06 0.05 0.04 0.03 0.03 0.03 0.03 0.03 0.03 0.03 0.03 0.03 0.03 0.03 0.03 0.03 0.03 0.03
0.03 0.04 0.04 0.02 0.02 0.02 0.03 0.04 0.03 0.02 0.02 0.02 0.02 0.03 0.03 0.02 0.02 0.02 0.02 0.02 0.04 0.04 0.05 0.05 0.05 0.05 0.05 0.04 0.04 0.03 0.02 0.03 0.02 0.03 0.04 0.04 0.03 0.03 0.03 0.03 0.03 0.03 0.03
0.02 0.02 0.02 0.02 0.02 0.02 0.02 0.02 0.02 0.02 0.02 0.01 0.01 0.02 0.03 0.02 0.02 0.02 0.02 0.02 0.03 0.03 0.03 0.03 0.03 0.04 0.04 0.04 0.04 0.04 0.03 0.02 0.03 0.03 0.04 0.04 0.03 0.02 0.03 0.03 0.04 0.04 0.03
0.02 0.02 0.02 0.02 0.03 0.03 0.02 0.02 0.01 0.02 0.02 0.02 0.02 0.02 0.03 0.02 0.02 0.02 0.02 0.02 0.03 0.03 0.02 0.03 0.03 0.04 0.05 0.05 0.04 0.04 0.03 0.03 0.03 0.03 0.04 0.04 0.03 0.03 0.03 0.03 0.03 0.03 0.03
0.01 0.01 0.01 0.01 0.02 0.02 0.02 0.01 0.01 0.01 0.02 0.02 0.03 0.02 0.03 0.02 0.02 0.02 0.02 0.01 0.02 0.02 0.03 0.03 0.03 0.03 0.03 0.04 0.04 0.04 0.04 0.03 0.03 0.02 0.03 0.04 0.03 0.03 0.02 0.02 0.03 0.03 0.03
0.01 0.01 0.01 0.02 0.02 0.02 0.02 0.02 0.02 0.02 0.03 0.02 0.03 0.03 0.03 0.03 0.03 0.02 0.03 0.02 0.03 0.03 0.03 0.03 0.03 0.02 0.02 0.03 0.03 0.04 0.04 0.03 0.03 0.03 0.03 0.03 0.03 0.02 0.02 0.02 0.02 0.03 0.02
0.02 0.02 0.02 0.02 0.03 0.02 0.02 0.02 0.02 0.02 0.02 0.02 0.02 0.02 0.02 0.03 0.03 0.04 0.05 0.04 0.04 0.04 0.03 0.03 0.03 0.02 0.02 0.02 0.03 0.03 0.03 0.03 0.03 0.03 0.04 0.03 0.02 0.02 0.02 0.02 0.02 0.02 0.03
MSLP
1009.17 1009.43 1009.70 1009.97 1010.21 1010.39 1010.49 1010.54 1010.55 1010.55 1010.58 1010.67 1010.82 1011.03 1011.27 1011.51 1011.72 1011.87 1011.93 1011.91 1011.83 1011.71 1011.58 1011.48 1011.43 1011.44 1011.48 1011.56 1011.62 1011.64 1011.61 1011.49 1011.29 1011.03 1010.73 1010.42 1010.14 1009.92 1009.80 1009.76 1009.83 1009.99 1010.23
1008.91 1009.13 1009.37 1009.61 1009.82 1009.97 1010.07 1010.11 1010.13 1010.15 1010.20 1010.32 1010.50 1010.73 1011.01 1011.27 1011.51 1011.67 1011.74 1011.71 1011.60 1011.44 1011.27 1011.11 1010.99 1010.94 1010.94 1010.98 1011.04 1011.09 1011.09 1011.02 1010.88 1010.67 1010.41 1010.12 1009.84 1009.59 1009.42 1009.32 1009.32 1009.41 1009.58
1008.83 1009.02 1009.22 1009.42 1009.59 1009.70 1009.77 1009.79 1009.80 1009.82 1009.88 1010.00 1010.19 1010.44 1010.72 1011.00 1011.24 1011.41 1011.49 1011.46 1011.34 1011.15 1010.94 1010.74 1010.58 1010.47 1010.43 1010.45 1010.50 1010.55 1010.57 1010.54 1010.44 1010.27 1010.05 1009.79 1009.52 1009.27 1009.07 1008.94 1008.89 1008.92 1009.03
1008.91 1009.08 1009.25 1009.40 1009.52 1009.59 1009.60 1009.59 1009.57 1009.56 1009.60 1009.71 1009.89 1010.13 1010.40 1010.68 1010.92 1011.08 1011.15 1011.12 1011.00 1010.81 1010.58 1010.36 1010.16 1010.02 1009.95 1009.93 1009.96 1010.00 1010.02 1010.01 1009.94 1009.82 1009.63 1009.41 1009.17 1008.94 1008.73 1008.59 1008.50 1008.49 1008.54
1009.13 1009.28 1009.41 1009.52 1009.58 1009.59 1009.55 1009.49 1009.42 1009.37 1009.38 1009.46 1009.61 1009.82 1010.07 1010.32 1010.53 1010.68 1010.75 1010.71 1010.59 1010.39 1010.16 1009.93 1009.72 1009.56 1009.45 1009.41 1009.40 1009.41 1009.43 1009.42 1009.37 1009.26 1009.12 1008.93 1008.73 1008.53 1008.35 1008.20 1008.11 1008.06 1008.07
1009.43 1009.56 1009.66 1009.72 1009.72 1009.67 1009.57 1009.45 1009.33 1009.24 1009.21 1009.25 1009.36 1009.53 1009.74 1009.95 1010.13 1010.25 1010.29 1010.25 1010.12 1009.93 1009.70 1009.46 1009.24 1009.06 1008.93 1008.84 1008.80 1008.78 1008.76 1008.74 1008.68 1008.60 1008.48 1008.34 1008.18 1008.02 1007.87 1007.74 1007.64 1007.58 1007.55
1009.75 1009.87 1009.93 1009.94 1009.89 1009.77 1009.62 1009.45 1009.29 1009.16 1009.10 1009.10 1009.17 1009.30 1009.45 1009.62 1009.75 1009.83 1009.85 1009.78 1009.64 1009.45 1009.22 1008.97 1008.74 1008.53 1008.37 1008.24 1008.15 1008.08 1008.02 1007.97 1007.90 1007.82 1007.73 1007.61 1007.50 1007.37 1007.26 1007.15 1007.05 1006.97 1006.92
1010.06 1010.15 1010.18 1010.14 1010.03 1009.87 1009.67 1009.47 1009.28 1009.13 1009.04 1009.02 1009.06 1009.15 1009.26 1009.37 1009.46 1009.50 1009.48 1009.38 1009.22 1009.01 1008.77 1008.51 1008.25 1008.02 1007.80 1007.62 1007.47 1007.35 1007.23 1007.13 1007.04 1006.95 1006.86 1006.77 1006.68 1006.60 1006.51 1006.42 1006.33 1006.24 1006.16
1010.32 1010.39 1010.38 1010.29 1010.14 1009.94 1009.72 1009.49 1009.30 1009.14 1009.05 1009.02 1009.05 1009.11 1009.19 1009.26 1009.31 1009.30 1009.23 1009.10 1008.91 1008.68 1008.41 1008.12 1007.83 1007.55 1007.28 1007.04 1006.82 1006.63 1006.45 1006.29 1006.16 1006.04 1005.95 1005.86 1005.79 1005.73 1005.66 1005.58 1005.50 1005.40 1005.29
1010.54 1010.58 1010.53 1010.40 1010.22 1010.00 1009.76 1009.54 1009.35 1009.21 1009.14 1009.11 1009.14 1009.19 1009.25 1009.29 1009.30 1009.25 1009.14 1008.97 1008.75 1008.48 1008.17 1007.85 1007.51 1007.18 1006.85 1006.54 1006.25 1005.98 1005.73 1005.52 1005.33 1005.18 1005.06 1004.97 1004.90 1004.84 1004.78 1004.71 1004.62 1004.50 1004.38
1010.73 1010.73 1010.64 1010.49 1010.29 1010.06 1009.82 1009.62 1009.45 1009.34 1009.29 1009.29 1009.32 1009.37 1009.42 1009.44 1009.42 1009.34 1009.20 1008.99 1008.73 1008.42 1008.08 1007.71 1007.33 1006.95 1006.56 1006.18 1005.82 1005.48 1005.16 1004.88 1004.64 1004.44 1004.29 1004.18 1004.09 1004.02 1003.96 1003.88 1003.78 1003.65 1003.50
1010.89 1010.86 1010.75 1010.57 1010.36 1010.13 1009.92 1009.73 1009.59 1009.51 1009.49 1009.51 1009.56 1009.62 1009.66 1009.67 1009.63 1009.52 1009.36 1009.13 1008.84 1008.50 1008.13 1007.73 1007.30 1006.87 1006.43 1006.00 1005.57 1005.16 1004.79 1004.45 1004.15 1003.91 1003.72 1003.57 1003.46 1003.37 1003.29 1003.19 1003.07 1002.93 1002.77
1011.03 1010.97 1010.85 1010.67 1010.46 1010.24 1010.04 1009.88 1009.77 1009.71 1009.71 1009.74 1009.80 1009.86 1009.90 1009.90 1009.85 1009.74 1009.56 1009.32 1009.02 1008.67 1008.28 1007.85 1007.41 1006.94 1006.47 1006.00 1005.53 1005.08 1004.65 1004.27 1003.93 1003.64 1003.41 1003.22 1003.08 1002.96 1002.84 1002.72 1002.59 1002.43 1002.25
1011.11 1011.06 1010.93 1010.77 1010.57 1010.37 1010.20 1010.05 1009.96 1009.91 1009.91 1009.94 1010.00 1010.05 1010.09 1010.09 1010.04 1009.92 1009.75 1009.51 1009.22 1008.87 1008.49 1008.07 1007.62 1007.15 1006.67 1006.18 1005.70 1005.23 1004.78 1004.36 1003.99 1003.67 1003.40 1003.17 1002.99 1002.83 1002.68 1002.53 1002.36 1002.18 1001.99
1011.12 1011.09 1010.99 1010.84 1010.68 1010.50 1010.34 1010.21 1010.11 1010.06 1010.05 1010.07 1010.11 1010.15 1010.18 1010.17 1010.13 1010.02 1009.87 1009.65 1009.38 1009.07 1008.71 1008.32 1007.90 1007.46 1007.00 1006.54 1006.07 1005.60 1005.15 1004.73 1004.34 1003.99 1003.69 1003.42 1003.19 1002.99 1002.80 1002.61 1002.41 1002.21 1002.00
1011.03 1011.03 1010.97 1010.87 1010.73 1010.58 1010.44 1010.31 1010.21 1010.14 1010.11 1010.10 1010.11 1010.13 1010.15 1010.14 1010.10 1010.01 1009.89 1009.71 1009.49 1009.22 1008.92 1008.59 1008.23 1007.84 1007.44 1007.02 1006.60 1006.17 1005.74 1005.33 1004.94 1004.58 1004.24 1003.94 1003.66 1003.41 1003.17 1002.94 1002.71 1002.48 1002.25
1010.80 1010.85 1010.84 1010.79 1010.69 1010.57 1010.44 1010.32 1010.21 1010.12 1010.06 1010.02 1010.00 1010.00 1010.00 1009.99 1009.96 1009.91 1009.82 1009.69 1009.53 1009.33 1009.10 1008.85 1008.56 1008.26 1007.94 1007.59 1007.24 1006.87 1006.49 1006.11 1005.73 1005.36 1005.00 1004.66 1004.33 1004.02 1003.73 1003.45 1003.18 1002.93 1002.69
1010.43 1010.53 1010.58 1010.57 1010.52 1010.43 1010.32 1010.21 1010.09 1009.98 1009.90 1009.84 1009.80 1009.78 1009.77 1009.76 1009.75 1009.72 1009.68 1009.61 1009.51 1009.39 1009.25 1009.08 1008.89 1008.69 1008.46 1008.21 1007.94 1007.64 1007.32 1006.98 1006.63 1006.26 1005.88 1005.49 1005.12 1004.75 1004.40 1004.07 1003.75 1003.47 1003.22
1009.93 1010.08 1010.17 1010.20 1010.19 1010.14 1010.06 1009.96 1009.85 1009.75 1009.65 1009.58 1009.53 1009.50 1009.50 1009.50 1009.51 1009.51 1009.51 1009.50 1009.47 1009.42 1009.37 1009.29 1009.20 1009.10 1008.97 1008.83 1008.65 1008.43 1008.18 1007.89 1007.56 1007.19 1006.79 1006.36 1005.93 1005.51 1005.09 1004.70 1004.35 1004.03 1003.77
1009.33 1009.50 1009.63 1009.70 1009.73 1009.72 1009.68 1009.61 1009.52 1009.43 1009.35 1009.28 1009.24 1009.22 1009.22 1009.24 1009.27 1009.31 1009.35 1009.38 1009.41 1009.44 1009.46 1009.47 1009.48 1009.47 1009.45 1009.40 1009.32 1009.19 1009.00 1008.76 1008.45 1008.08 1007.66 1007.20 1006.71 1006.22 1005.75 1005.30 1004.90 1004.55 1004.27
1008.68 1008.86 1009.00 1009.11 1009.18 1009.21 1009.21 1009.18 1009.13 1009.08 1009.03 1008.99 1008.96 1008.96 1008.98 1009.02 1009.07 1009.13 1009.20 1009.27 1009.35 1009.43 1009.52 1009.61 1009.70 1009.79 1009.86 1009.90 1009.91 1009.85 1009.73 1009.53 1009.24 1008.88 1008.44 1007.94 1007.40 1006.85 1006.32 1005.82 1005.37 1004.99 1004.70
1008.04 1008.21 1008.36 1008.49 1008.59 1008.67 1008.71 1008.74 1008.74 1008.73 1008.72 1008.72 1008.73 1008.75 1008.79 1008.84 1008.91 1008.99 1009.08 1009.18 1009.29 1009.41 1009.55 1009.70 1009.86 1010.03 1010.18 1010.30 1010.38 1010.40 1010.33 1010.17 1009.90 1009.54 1009.08 1008.55 1007.97 1007.38 1006.79 1006.24 1005.75 1005.34 1005.03
1007.48 1007.64 1007.79 1007.93 1008.06 1008.17 1008.26 1008.34 1008.39 1008.43 1008.47 1008.51 1008.54 1008.59 1008.64 1008.71 1008.78 1008.87 1008.96 1009.08 1009.21 1009.36 1009.53 1009.73 1009.94 1010.17 1010.38 1010.57 1010.72 1010.79 1010.77 1010.65 1010.41 1010.05 1009.59 1009.03 1008.42 1007.79 1007.16 1006.57 1006.05 1005.61 1005.28
1007.05 1007.19 1007.33 1007.49 1007.64 1007.78 1007.91 1008.02 1008.12 1008.20 1008.28 1008.34 1008.40 1008.46 1008.52 1008.59 1008.66 1008.74 1008.83 1008.95 1009.09 1009.25 1009.45 1009.68 1009.93 1010.20 1010.47 1010.72 1010.91 1011.04 1011.06 1010.97 1010.75 1010.41 1009.95 1009.39 1008.77 1008.11 1007.46 1006.84 1006.30 1005.84 1005.49
1006.76 1006.89 1007.03 1007.18 1007.34 1007.51 1007.66 1007.80 1007.92 1008.03 1008.12 1008.20 1008.26 1008.32 1008.38 1008.44 1008.50 1008.57 1008.66 1008.77 1008.91 1009.08 1009.30 1009.55 1009.84 1010.14 1010.45 1010.74 1010.98 1011.14 1011.21 1011.15 1010.96 1010.64 1010.20 1009.65 1009.03 1008.37 1007.72 1007.09 1006.54 1006.07 1005.71
1006.59 1006.71 1006.85 1007.00 1007.16 1007.32 1007.48 1007.62 1007.75 1007.86 1007.95 1008.02 1008.08 1008.13 1008.17 1008.22 1008.26 1008.32 1008.41 1008.51 1008.66 1008.84 1009.07 1009.35 1009.66 1009.99 1010.33 1010.65 1010.93 1011.12 1011.22 1011.20 1011.05 1010.76 1010.35 1009.83 1009.23 1008.59 1007.95 1007.34 1006.79 1006.32 1005.95
Thickness
5799 5794 5789 5784 5781 5777 5772 5768 5765 5762 5759 5755 5752 5749 5746 5744 5741 5738 5736 5735 5732 5731 5730 5728 5726 5725 5724 5724 5724 5723 5721 5718 5712 5715 5718 5720 5719 5718 5718 5717 5717 5716 5715
5796 5790 5785 5781 5776 5772 5768 5765 5761 5758 5754 5751 5748 5744 5742 5739 5736 5733 5730 5729 5727 5725 5724 5722 5720 5720 5717 5717 5716 5715 5714 5714 5710 5706 5709 5711 5711 5712 5712 5711 5711 5711 5710
5792 5786 5780 5776 5771 5767 5763 5760 5757 5753 5749 5746 5743 5739 5736 5733 5730 5727 5725 5723 5722 5721 5719 5717 5715 5713 5711 5710 5709 5708 5708 5708 5706 5702 5702 5704 5705 5706 5705 5704 5705 5704 5704
5785 5780 5774 5770 5767 5762 5759 5755 5752 5748 5744 5740 5737 5734 5731 5728 5724 5721 5718 5716 5715 5714 5713 5712 5711 5708 5706 5704 5703 5701 5701 5699 5698 5696 5695 5696 5696 5698 5697 5694 5694 5695 5695
5777 5772 5767 5765 5761 5757 5753 5749 5746 5742 5739 5735 5731 5727 5725 5722 5719 5714 5711 5710 5708 5707 5707 5706 5705 5703 5701 5699 5697 5694 5693 5691 5689 5688 5687 5687 5687 5686 5685 5686 5685 5686 5687
5768 5764 5761 5757 5754 5750 5746 5742 5738 5735 5731 5728 5724 5721 5718 5715 5711 5708 5705 5702 5701 5700 5698 5697 5697 5696 5694 5691 5689 5688 5686 5683 5681 5679 5678 5677 5677 5678 5677 5677 5676 5675 5674
5760 5756 5753 5749 5745 5742 5740 5735 5732 5728 5725 5721 5718 5715 5711 5706 5703 5700 5698 5695 5694 5692 5690 5688 5688 5688 5686 5683 5682 5681 5679 5678 5676 5673 5670 5669 5669 5670 5668 5667 5666 5666 5666
5752 5748 5746 5742 5738 5735 5732 5728 5725 5722 5718 5714 5711 5708 5704 5700 5696 5693 5690 5688 5687 5685 5684 5682 5679 5678 5678 5675 5674 5673 5672 5671 5669 5667 5666 5665 5665 5664 5662 5661 5660 5660 5662
5745 5741 5739 5736 5732 5728 5724 5721 5718 5714 5711 5707 5704 5701 5696 5692 5689 5686 5682 5681 5680 5678 5677 5676 5673 5671 5668 5667 5666 5664 5663 5662 5663 5661 5660 5659 5658 5658 5656 5653 5651 5649 5650
5738 5736 5734 5731 5726 5722 5718 5715 5711 5707 5704 5700 5697 5693 5690 5685 5682 5678 5675 5673 5671 5669 5668 5666 5665 5662 5660 5658 5656 5655 5652 5652 5653 5653 5652 5652 5652 5651 5650 5647 5645 5642 5641
5733 5730 5727 5724 5720 5716 5712 5708 5704 5700 5696 5692 5689 5686 5683 5679 5674 5670 5666 5663 5661 5660 5658 5657 5655 5653 5651 5649 5648 5646 5645 5644 5644 5645 5645 5645 5645 5644 5644 5642 5641 5637 5635
5724 5721 5719 5716 5713 5710 5704 5700 5697 5692 5688 5684 5680 5677 5674 5671 5667 5662 5658 5655 5652 5650 5649 5648 5647 5645 5643 5641 5641 5640 5638 5637 5637 5637 5636 5636 5636 5635 5636 5635 5635 5633 5632
5715 5712 5709 5707 5704 5701 5697 5692 5688 5684 5679 5675 5672 5668 5665 5662 5658 5653 5648 5645 5643 5641 5641 5639 5637 5636 5635 5634 5634 5632 5630 5629 5628 5627 5627 5627 5628 5628 5628 5628 5628 5627 5627
5705 5703 5701 5698 5695 5693 5689 5685 5680 5675 5671 5667 5663 5659 5656 5652 5648 5643 5639 5636 5633 5631 5630 5629 5628 5628 5627 5627 5627 5625 5623 5622 5620 5619 5619 5620 5621 5620 5620 5620 5619 5618 5617
5697 5694 5693 5691 5687 5683 5679 5675 5672 5668 5663 5658 5654 5650 5646 5642 5637 5633 5631 5628 5626 5623 5620 5619 5620 5620 5620 5619 5619 5619 5617 5615 5613 5611 5611 5611 5611 5611 5610 5611 5610 5609 5608
5687 5686 5684 5682 5679 5675 5670 5666 5662 5660 5655 5651 5646 5642 5638 5633 5628 5624 5622 5619 5617 5615 5612 5612 5612 5612 5612 5612 5612 5611 5610 5608 5606 5605 5604 5603 5602 5602 5601 5602 5601 5601 5600
5679 5677 5676 5674 5670 5667 5663 5659 5654 5650 5646 5642 5638 5633 5628 5623 5620 5617 5614 5611 5609 5607 5606 5607 5606 5606 5605 5605 5604 5603 5603 5602 5600 5598 5597 5596 5595 5595 5594 5593 5593 5593 5592
5671 5669 5667 5665 5663 5659 5656 5652 5648 5643 5638 5634 5629 5625 5621 5617 5613 5609 5606 5603 5603 5602 5602 5601 5601 5600 5599 5598 5597 5596 5595 5595 5593 5591 5590 5589 5589 5588 5587 5586 5585 5585 5584
5663 5662 5660 5657 5655 5652 5649 5645 5641 5637 5633 5629 5625 5619 5614 5609 5605 5602 5599 5598 5598 5598 5597 5595 5595 5594 5593 5591 5590 5589 5588 5588 5586 5584 5583 5582 5582 5581 5580 5580 5579 5578 5577
5655 5652 5650 5649 5647 5645 5641 5637 5633 5629 5626 5622 5618 5614 5609 5604 5602 5598 5595 5594 5594 5593 5592 5590 5589 5588 5587 5585 5584 5582 5582 5581 5579 5578 5577 5576 5576 5575 5574 5574 5573 5572 5571
5648 5646 5642 5641 5640 5637 5633 5629 5625 5621 5618 5615 5613 5610 5604 5602 5600 5598 5595 5592 5590 5589 5587 5585 5584 5582 5581 5579 5578 5577 5576 5575 5573 5571 5570 5570 5570 5570 5570 5569 5567 5566 5566
5640 5639 5636 5634 5632 5629 5625 5622 5618 5615 5612 5609 5607 5605 5599 5598 5597 5595 5593 5589 5587 5585 5583 5580 5578 5576 5575 5573 5572 5571 5570 5568 5567 5566 5565 5565 5565 5564 5564 5563 5562 5560 5559
5631 5630 5629 5627 5625 5621 5619 5616 5613 5610 5607 5605 5602 5599 5595 5593 5592 5590 5588 5585 5583 5580 5578 5575 5573 5571 5570 5568 5566 5564 5563 5562 5561 5560 5559 5559 5559 5559 5558 5558 5556 5555 5554
5624 5623 5622 5620 5618 5616 5613 5611 5608 5606 5604 5601 5597 5594 5591 5588 5586 5584 5582 5580 5578 5575 5573 5570 5568 5566 5564 5562 5561 5559 5558 5557 5556 5555 5554 5554 5554 5555 5554 5553 5552 5551 5549
5616 5615 5614 5613 5611 5610 5608 5605 5603 5601 5598 5595 5592 5589 5586 5584 5581 5579 5577 5575 5573 5570 5567 5566 5563 5561 5559 5557 5555 5553 5552 5551 5550 5549 5549 5550 5550 5549 5549 5548 5546 5545 5544
5609 5607 5606 5606 5604 5602 5600 5598 5597 5595 5593 5590 5587 5584 5581 5578 5576 5573 5571 5569 5567 5564 5562 5560 5558 5556 5553 5552 5550 5548 5547 5546 5545 5544 5544 5545 5545 5545 5544 5543 5542 5540 5540